EW1390 Weather Reports


time (UTC)temp
C
wind
direction
speed
KPH
gust
KPH
rain 1hr
cm
rain 24hr
cm
rain mn
cm
humidity
%
barometer
mb
20260509190051 26 267 0.0 12.9 0.00 0.00 0.00 50 1006.6
20260509184544 26 309 0.0 6.4 0.00 0.00 0.00 51 1006.8
20260509183042 25 241 1.6 11.3 0.00 0.00 0.00 51 1006.8
20260509181539 25 223 0.0 8.0 0.00 0.00 0.00 50 1006.9
20260509180033 24 103 0.0 6.4 0.00 0.00 0.00 57 1006.8
20260509174529 23 202 1.6 6.4 0.00 0.00 0.00 60 1006.9
20260509173026 22 240 0.0 4.8 0.00 0.00 0.00 65 1006.9
20260509171525 20 276 0.0 4.8 0.00 0.00 0.00 75 1006.8
20260509170026 17 276 1.6 4.8 0.00 0.00 0.00 89 1006.8
20260509164512 16 276 0.0 0.0 0.00 0.00 0.00 95 1006.8
20260509163011 16 276 0.0 1.6 0.00 0.00 0.00 96 1007.0
20260509161507 15 276 0.0 1.6 0.00 0.00 0.00 95 1007.0
20260509160003 14 276 0.0 0.0 0.00 0.00 0.00 95 1007.0
20260509154559 13 276 0.0 0.0 0.00 0.00 0.00 95 1007.1
20260509153054 12 276 0.0 0.0 0.00 0.00 0.00 95 1007.0
20260509151558 12 276 0.0 0.0 0.00 0.00 0.00 95 1007.1
20260509150051 11 276 0.0 0.0 0.00 0.00 0.00 95 1007.1
20260509144552 10 276 0.0 0.0 0.00 0.00 0.00 94 1007.1
20260509143051 10 276 0.0 0.0 0.00 0.00 0.00 94 1007.0
20260509141552 10 276 0.0 0.0 0.00 0.00 0.00 94 1007.1
20260509140048 10 276 0.0 0.0 0.00 0.00 0.00 94 1007.0
20260509134556 10 276 0.0 0.0 0.00 0.00 0.00 93 1006.9
20260509133047 10 276 0.0 0.0 0.00 0.00 0.00 93 1006.8
20260509131602 10 276 0.0 0.0 0.00 0.00 0.00 93 1006.7
20260509130056 10 276 0.0 0.0 0.00 0.00 0.00 93 1006.7
20260509124548 10 276 0.0 0.0 0.00 0.00 0.00 93 1006.5
20260509123050 10 276 0.0 0.0 0.00 0.00 0.00 93 1006.5
20260509121547 10 276 0.0 0.0 0.00 0.00 0.00 93 1006.5
20260509120040 10 276 0.0 0.0 0.00 0.00 0.00 93 1006.6
20260509114538 10 276 0.0 0.0 0.00 0.00 0.00 92 1006.6
20260509113036 10 276 0.0 0.0 0.00 0.00 0.00 92 1006.7
20260509111536 10 276 0.0 0.0 0.00 0.00 0.00 92 1006.7
20260509110034 10 276 0.0 0.0 0.00 0.00 0.00 92 1006.7
20260509104537 10 276 0.0 0.0 0.00 0.00 0.00 92 1006.8
20260509103031 10 276 0.0 1.6 0.00 0.00 0.00 92 1006.9
20260509101530 10 276 0.0 0.0 0.00 0.00 0.00 91 1006.8
20260509100032 10 276 0.0 0.0 0.00 0.00 0.00 91 1006.8
20260509094525 11 276 0.0 0.0 0.00 0.00 0.00 91 1007.0
20260509093026 11 276 0.0 0.0 0.00 0.00 0.00 91 1007.0
20260509091525 11 276 0.0 0.0 0.00 0.00 0.00 91 1007.1
20260509090027 11 276 0.0 0.0 0.00 0.00 0.00 91 1007.1
20260509084519 11 276 0.0 0.0 0.00 0.00 0.00 90 1007.2
20260509083019 11 276 0.0 0.0 0.00 0.00 0.00 90 1007.2
20260509081532 11 276 0.0 0.0 0.00 0.00 0.00 90 1007.1
20260509080013 11 276 0.0 0.0 0.00 0.00 0.00 90 1007.2
20260509074512 12 276 0.0 0.0 0.00 0.00 0.00 89 1007.3
20260509073112 12 276 0.0 0.0 0.00 0.00 0.00 89 1007.3
20260509071508 12 276 0.0 0.0 0.00 0.00 0.00 88 1007.3
20260509070005 12 276 0.0 0.0 0.00 0.00 0.00 88 1007.2
20260509064505 12 276 0.0 0.0 0.00 0.00 0.00 87 1007.2
20260509063005 13 276 0.0 0.0 0.00 0.00 0.00 87 1007.3
20260509061502 13 276 0.0 0.0 0.00 0.00 0.00 87 1007.3
20260509060002 13 276 0.0 0.0 0.00 0.00 0.00 86 1007.3
20260509054504 13 276 0.0 0.0 0.00 0.00 0.00 86 1007.3
20260509053003 13 276 0.0 0.0 0.00 0.00 0.00 85 1007.3
20260509051502 14 276 0.0 0.0 0.00 0.00 0.00 84 1007.1
20260509050101 14 276 0.0 0.0 0.00 0.00 0.00 84 1007.1
20260509044600 15 276 0.0 4.8 0.00 0.00 0.00 83 1007.0
20260509043102 15 248 1.6 3.2 0.00 0.00 0.00 82 1007.1
20260509041600 15 248 0.0 4.8 0.00 0.00 0.00 81 1006.9
20260509040114 16 248 1.6 4.8 0.00 0.00 0.00 79 1006.8
20260509034629 16 248 0.0 1.6 0.00 0.00 0.00 77 1006.8
20260509033057 17 248 0.0 0.0 0.00 0.00 0.00 75 1006.8
20260509031557 18 248 0.0 0.0 0.00 0.00 0.00 73 1006.7
20260509030105 19 248 0.0 0.0 0.00 0.00 0.00 69 1006.6
20260509024555 20 248 0.0 0.0 0.00 0.00 0.00 65 1006.6
20260509023054 21 248 0.0 0.0 0.00 0.00 0.00 61 1006.4
20260509021556 23 248 0.0 1.6 0.00 0.00 0.00 55 1006.5
20260509020053 24 248 0.0 4.8 0.00 0.00 0.00 49 1006.5
20260509014551 25 309 0.0 4.8 0.00 0.00 0.00 42 1006.5
20260509013104 26 252 0.0 8.0 0.00 0.00 0.00 38 1006.5
20260509011558 26 245 0.0 4.8 0.00 0.00 0.00 38 1006.6
20260509010047 26 238 1.6 9.7 0.00 0.00 0.00 36 1006.6
20260509004546 26 247 1.6 6.4 0.00 0.00 0.00 36 1006.7
20260509003106 26 279 0.0 6.4 0.00 0.00 0.00 35 1006.8
20260509001545 27 264 1.6 6.4 0.00 0.00 0.00 37 1006.9
20260509000052 27 316 1.6 6.4 0.00 0.00 0.00 40 1006.9
20260508234543 27 230 3.2 11.3 0.00 0.00 0.00 43 1006.9
20260508233040 27 277 1.6 6.4 0.00 0.00 0.00 45 1007.0
20260508231545 27 268 0.0 8.0 0.00 0.00 0.00 44 1007.1
20260508230036 27 224 0.0 8.0 0.00 0.00 0.00 44 1007.3
20260508224536 27 337 1.6 9.7 0.00 0.00 0.00 44 1007.7
20260508223031 27 245 4.8 11.3 0.00 0.00 0.00 38 1007.8
20260508221530 27 222 0.0 8.0 0.00 0.00 0.00 39 1007.9
20260508220027 26 244 1.6 6.4 0.00 0.00 0.00 35 1008.1
20260508214525 26 220 1.6 6.4 0.00 0.00 0.00 32 1008.2
20260508213023 26 276 0.0 6.4 0.00 0.00 0.00 43 1008.3
20260508211526 26 157 1.6 8.0 0.00 0.00 0.00 43 1008.5
20260508210019 26 265 1.6 11.3 0.00 0.00 0.00 45 1008.5
20260508204518 26 5 1.6 12.9 0.00 0.00 0.00 42 1008.5
20260508203019 26 198 1.6 6.4 0.00 0.00 0.00 46 1008.6
20260508201615 26 254 3.2 8.0 0.00 0.00 0.00 46 1008.7
20260508200011 25 278 0.0 4.8 0.00 0.00 0.00 50 1008.9
20260508194509 25 225 0.0 6.4 0.00 0.00 0.00 48 1009.0
20260508193009 25 178 1.6 11.3 0.00 0.00 0.00 48 1009.1
20260508191505 25 234 3.2 11.3 0.00 0.00 0.00 49 1009.2